カタログに戻る

STARLINK-37532

運用中通信VLEO
NORAD 69468·PAYLOAD·🇺🇸 United States

打ち上げ Jun 8, 2026 から Cape Canaveral Space Force Station

Loading…

次のパス (今後24時間)

TLE

最新Source: CelesTrak SupGP

元期: Sep 15, 2026, 03:21 UTC

1 69468C 26127AB  26258.14006944 -.00075819  00000+0 -21694-2 0  2585
2 69468  53.1571 190.7886 0001239  92.0959  93.8020 15.35434311    18

AllMySatでSTARLINK-37532をリアルタイム追跡

Download on the App Store